Year,Month,Day,Hour,Minute,Value (Times are PST for temperature in C)
2018,07,05,00,00,14.70
2018,07,05,00,01,14.70
2018,07,05,00,02,14.70
2018,07,05,00,03,14.70
2018,07,05,00,04,14.70
2018,07,05,00,05,14.70
2018,07,05,00,06,14.70
2018,07,05,00,07,14.70
2018,07,05,00,08,14.70
2018,07,05,00,09,14.70
2018,07,05,00,10,14.70
2018,07,05,00,11,14.70
2018,07,05,00,12,14.70
2018,07,05,00,13,14.80
2018,07,05,00,14,14.80
2018,07,05,00,15,14.80
2018,07,05,00,16,14.80
2018,07,05,00,17,14.80
2018,07,05,00,18,14.80
2018,07,05,00,19,14.80
2018,07,05,00,20,14.80
2018,07,05,00,21,14.80
2018,07,05,00,22,14.80
2018,07,05,00,23,14.80
2018,07,05,00,24,14.80
2018,07,05,00,25,14.80
2018,07,05,00,26,14.80
2018,07,05,00,27,14.80
2018,07,05,00,28,14.80
2018,07,05,00,29,14.90
2018,07,05,00,30,14.90
2018,07,05,00,31,14.90
2018,07,05,00,32,14.90
2018,07,05,00,33,14.90
2018,07,05,00,34,14.90
2018,07,05,00,35,14.90
2018,07,05,00,36,14.90
2018,07,05,00,37,14.90
2018,07,05,00,38,14.90
2018,07,05,00,39,14.90
2018,07,05,00,40,14.90
2018,07,05,00,41,14.90
2018,07,05,00,42,14.90
2018,07,05,00,43,14.90
2018,07,05,00,44,14.90
2018,07,05,00,45,14.90
2018,07,05,00,46,14.90
2018,07,05,00,47,14.80
2018,07,05,00,48,14.80
2018,07,05,00,49,14.80
2018,07,05,00,50,14.80
2018,07,05,00,51,14.80
2018,07,05,00,52,14.80
2018,07,05,00,53,14.80
2018,07,05,00,54,14.80
2018,07,05,00,55,14.80
2018,07,05,00,56,14.80
2018,07,05,00,57,14.80
2018,07,05,00,58,14.80
2018,07,05,00,59,14.80
2018,07,05,01,00,14.80
2018,07,05,01,01,14.80
2018,07,05,01,02,14.80
2018,07,05,01,03,14.80
2018,07,05,01,04,14.80
2018,07,05,01,05,14.70
2018,07,05,01,06,14.70
2018,07,05,01,07,14.70
2018,07,05,01,08,14.70
2018,07,05,01,09,14.70
2018,07,05,01,10,14.70
2018,07,05,01,11,14.60
2018,07,05,01,12,14.60
2018,07,05,01,13,14.60
2018,07,05,01,14,14.60
2018,07,05,01,15,14.60
2018,07,05,01,16,14.60
2018,07,05,01,17,14.60
2018,07,05,01,18,14.50
2018,07,05,01,19,14.50
2018,07,05,01,20,14.50
2018,07,05,01,21,14.50
2018,07,05,01,22,14.50
2018,07,05,01,23,14.50
2018,07,05,01,24,14.50
2018,07,05,01,25,14.60
2018,07,05,01,26,14.60
2018,07,05,01,27,14.60
2018,07,05,01,28,14.60
2018,07,05,01,29,14.60
2018,07,05,01,30,14.60
2018,07,05,01,31,14.60
2018,07,05,01,32,14.60
2018,07,05,01,33,14.50
2018,07,05,01,34,14.50
2018,07,05,01,35,14.60
2018,07,05,01,36,14.50
2018,07,05,01,37,14.50
2018,07,05,01,38,14.50
2018,07,05,01,39,14.50
2018,07,05,01,40,14.50
2018,07,05,01,41,14.50
2018,07,05,01,42,14.50
2018,07,05,01,43,14.40
2018,07,05,01,44,14.40
2018,07,05,01,45,14.40
2018,07,05,01,46,14.40
2018,07,05,01,47,14.40
2018,07,05,01,48,14.30
2018,07,05,01,49,14.30
2018,07,05,01,50,14.30
2018,07,05,01,51,14.30
2018,07,05,01,52,14.30
2018,07,05,01,53,14.30
2018,07,05,01,54,14.30
2018,07,05,01,55,14.30
2018,07,05,01,56,14.30
2018,07,05,01,57,14.30
2018,07,05,01,58,14.30
2018,07,05,01,59,14.30
2018,07,05,02,00,14.30
2018,07,05,02,01,14.30
2018,07,05,02,02,14.30
2018,07,05,02,03,14.40
2018,07,05,02,04,14.30
2018,07,05,02,05,14.40
2018,07,05,02,06,14.40
2018,07,05,02,07,14.30
2018,07,05,02,08,14.30
2018,07,05,02,09,14.30
2018,07,05,02,10,14.30
2018,07,05,02,11,14.40
2018,07,05,02,12,14.40
2018,07,05,02,13,14.40
2018,07,05,02,14,14.40
2018,07,05,02,15,14.40
2018,07,05,02,16,14.40
2018,07,05,02,17,14.40
2018,07,05,02,18,14.40
2018,07,05,02,19,14.40
2018,07,05,02,20,14.40
2018,07,05,02,21,14.40
2018,07,05,02,22,14.40
2018,07,05,02,23,14.40
2018,07,05,02,24,14.50
2018,07,05,02,25,14.50
2018,07,05,02,26,14.50
2018,07,05,02,27,14.50
2018,07,05,02,28,14.50
2018,07,05,02,29,14.50
2018,07,05,02,30,14.50
2018,07,05,02,31,14.50
2018,07,05,02,32,14.50
2018,07,05,02,33,14.50
2018,07,05,02,34,14.40
2018,07,05,02,35,14.40
2018,07,05,02,36,14.40
2018,07,05,02,37,14.40
2018,07,05,02,38,14.40
2018,07,05,02,39,14.50
2018,07,05,02,40,14.50
2018,07,05,02,41,14.50
2018,07,05,02,42,14.50
2018,07,05,02,43,14.50
2018,07,05,02,44,14.40
2018,07,05,02,45,14.40
2018,07,05,02,46,14.40
2018,07,05,02,47,14.40
2018,07,05,02,48,14.40
2018,07,05,02,49,14.40
2018,07,05,02,50,14.40
2018,07,05,02,51,14.40
2018,07,05,02,52,14.40
2018,07,05,02,53,14.40
2018,07,05,02,54,14.40
2018,07,05,02,55,14.40
2018,07,05,02,56,14.40
2018,07,05,02,57,14.40
2018,07,05,02,58,14.40
2018,07,05,02,59,14.40
2018,07,05,03,00,14.40
2018,07,05,03,01,14.40
2018,07,05,03,02,14.30
2018,07,05,03,03,14.30
2018,07,05,03,04,14.30
2018,07,05,03,05,14.30
2018,07,05,03,06,14.30
2018,07,05,03,07,14.30
2018,07,05,03,08,14.30
2018,07,05,03,09,14.30
2018,07,05,03,10,14.30
2018,07,05,03,11,14.30
2018,07,05,03,12,14.30
2018,07,05,03,13,14.30
2018,07,05,03,14,14.30
2018,07,05,03,15,14.30
2018,07,05,03,16,14.30
2018,07,05,03,17,14.30
2018,07,05,03,18,14.30
2018,07,05,03,19,14.30
2018,07,05,03,20,14.30
2018,07,05,03,21,14.30
2018,07,05,03,22,14.30
2018,07,05,03,23,14.30
2018,07,05,03,24,14.30
2018,07,05,03,25,14.30
2018,07,05,03,26,14.30
2018,07,05,03,27,14.20
2018,07,05,03,28,14.20
2018,07,05,03,29,14.20
2018,07,05,03,30,14.20
2018,07,05,03,31,14.20
2018,07,05,03,32,14.20
2018,07,05,03,33,14.20
2018,07,05,03,34,14.20
2018,07,05,03,35,14.20
2018,07,05,03,36,14.20
2018,07,05,03,37,14.20
2018,07,05,03,38,14.30
2018,07,05,03,39,14.30
2018,07,05,03,40,14.30
2018,07,05,03,41,14.30
2018,07,05,03,42,14.30
2018,07,05,03,43,14.20
2018,07,05,03,44,14.20
2018,07,05,03,45,14.20
2018,07,05,03,46,14.20
2018,07,05,03,47,14.20
2018,07,05,03,48,14.20
2018,07,05,03,49,14.20
2018,07,05,03,50,14.10
2018,07,05,03,51,14.10
2018,07,05,03,52,14.10
2018,07,05,03,53,14.10
2018,07,05,03,54,14.10
2018,07,05,03,55,14.10
2018,07,05,03,56,14.10
2018,07,05,03,57,14.10
2018,07,05,03,58,14.10
2018,07,05,03,59,14.10
2018,07,05,04,00,14.00
2018,07,05,04,01,14.00
2018,07,05,04,02,14.00
2018,07,05,04,03,14.00
2018,07,05,04,04,14.00
2018,07,05,04,05,14.00
2018,07,05,04,06,14.00
2018,07,05,04,07,13.90
2018,07,05,04,08,13.90
2018,07,05,04,09,13.90
2018,07,05,04,10,13.90
2018,07,05,04,11,13.90
2018,07,05,04,12,13.80
2018,07,05,04,13,13.80
2018,07,05,04,14,13.80
2018,07,05,04,15,13.80
2018,07,05,04,16,13.80
2018,07,05,04,17,13.80
2018,07,05,04,18,13.80
2018,07,05,04,19,13.80
2018,07,05,04,20,13.80
2018,07,05,04,21,13.80
2018,07,05,04,22,13.80
2018,07,05,04,23,13.80
2018,07,05,04,24,13.80
2018,07,05,04,25,13.70
2018,07,05,04,26,13.70
2018,07,05,04,27,13.70
2018,07,05,04,28,13.70
2018,07,05,04,29,13.70
2018,07,05,04,30,13.70
2018,07,05,04,31,13.70
2018,07,05,04,32,13.70
2018,07,05,04,33,13.70
2018,07,05,04,34,13.70
2018,07,05,04,35,13.60
2018,07,05,04,36,13.60
2018,07,05,04,37,13.60
2018,07,05,04,38,13.60
2018,07,05,04,39,13.60
2018,07,05,04,40,13.60
2018,07,05,04,41,13.60
2018,07,05,04,42,13.50
2018,07,05,04,43,13.50
2018,07,05,04,44,13.50
2018,07,05,04,45,13.50
2018,07,05,04,46,13.50
2018,07,05,04,47,13.50
2018,07,05,04,48,13.50
2018,07,05,04,49,13.60
2018,07,05,04,50,13.60
2018,07,05,04,51,13.60
2018,07,05,04,52,13.60
2018,07,05,04,53,13.60
2018,07,05,04,54,13.60
2018,07,05,04,55,13.60
2018,07,05,04,56,13.60
2018,07,05,04,57,13.60
2018,07,05,04,58,13.60
2018,07,05,04,59,13.60
2018,07,05,05,00,13.60
2018,07,05,05,01,13.60
2018,07,05,05,02,13.60
2018,07,05,05,03,13.60
2018,07,05,05,04,13.60
2018,07,05,05,05,13.60
2018,07,05,05,06,13.60
2018,07,05,05,07,13.60
2018,07,05,05,08,13.60
2018,07,05,05,09,13.60
2018,07,05,05,10,13.60
2018,07,05,05,11,13.60
2018,07,05,05,12,13.60
2018,07,05,05,13,13.60
2018,07,05,05,14,13.60
2018,07,05,05,15,13.60
2018,07,05,05,16,13.60
2018,07,05,05,17,13.50
2018,07,05,05,18,13.40
2018,07,05,05,19,13.40
2018,07,05,05,20,13.30
2018,07,05,05,21,13.30
2018,07,05,05,22,13.30
2018,07,05,05,23,13.30
2018,07,05,05,24,13.20
2018,07,05,05,25,13.20
2018,07,05,05,26,13.20
2018,07,05,05,27,13.20
2018,07,05,05,28,13.20
2018,07,05,05,29,13.20
2018,07,05,05,30,13.20
2018,07,05,05,31,13.20
2018,07,05,05,32,13.20
2018,07,05,05,33,13.10
2018,07,05,05,34,13.10
2018,07,05,05,35,13.10
2018,07,05,05,36,13.10
2018,07,05,05,37,13.10
2018,07,05,05,38,13.10
2018,07,05,05,39,13.10
2018,07,05,05,40,13.10
2018,07,05,05,41,13.10
2018,07,05,05,42,13.10
2018,07,05,05,43,13.10
2018,07,05,05,44,13.10
2018,07,05,05,45,13.10
2018,07,05,05,46,13.10
2018,07,05,05,47,13.10
2018,07,05,05,48,13.10
2018,07,05,05,49,13.10
2018,07,05,05,50,13.10
2018,07,05,05,51,13.20
2018,07,05,05,52,13.20
2018,07,05,05,53,13.20
2018,07,05,05,54,13.20
2018,07,05,05,55,13.20
2018,07,05,05,56,13.20
2018,07,05,05,57,13.20
2018,07,05,05,58,13.20
2018,07,05,05,59,13.20
2018,07,05,06,00,13.20
2018,07,05,06,01,13.20
2018,07,05,06,02,13.20
2018,07,05,06,03,13.20
2018,07,05,06,04,13.30
2018,07,05,06,05,13.30
2018,07,05,06,06,13.30
2018,07,05,06,07,13.30
2018,07,05,06,08,13.30
2018,07,05,06,09,13.30
2018,07,05,06,10,13.30
2018,07,05,06,11,13.30
2018,07,05,06,12,13.30
2018,07,05,06,13,13.40
2018,07,05,06,14,13.40
2018,07,05,06,15,13.40
2018,07,05,06,16,13.40
2018,07,05,06,17,13.40
2018,07,05,06,18,13.40
2018,07,05,06,19,13.40
2018,07,05,06,20,13.40
2018,07,05,06,21,13.40
2018,07,05,06,22,13.40
2018,07,05,06,23,13.40
2018,07,05,06,24,13.40
2018,07,05,06,25,13.40
2018,07,05,06,26,13.40
2018,07,05,06,27,13.40
2018,07,05,06,28,13.40
2018,07,05,06,29,13.40
2018,07,05,06,30,13.40
2018,07,05,06,31,13.40
2018,07,05,06,32,13.40
2018,07,05,06,33,13.50
2018,07,05,06,34,13.50
2018,07,05,06,35,13.50
2018,07,05,06,36,13.50
2018,07,05,06,37,13.50
2018,07,05,06,38,13.50
2018,07,05,06,39,13.50
2018,07,05,06,40,13.50
2018,07,05,06,41,13.50
2018,07,05,06,42,13.50
2018,07,05,06,43,13.50
2018,07,05,06,44,13.50
2018,07,05,06,45,13.50
2018,07,05,06,46,13.50
2018,07,05,06,47,13.50
2018,07,05,06,48,13.50
2018,07,05,06,49,13.50
2018,07,05,06,50,13.40
2018,07,05,06,51,13.40
2018,07,05,06,52,13.40
2018,07,05,06,53,13.30
2018,07,05,06,54,13.30
2018,07,05,06,55,13.30
2018,07,05,06,56,13.30
2018,07,05,06,57,13.30
2018,07,05,06,58,13.30
2018,07,05,06,59,13.40
2018,07,05,07,00,13.40
2018,07,05,07,01,13.40
2018,07,05,07,02,13.40
2018,07,05,07,03,13.40
2018,07,05,07,04,13.40
2018,07,05,07,05,13.40
2018,07,05,07,06,13.50
2018,07,05,07,07,13.40
2018,07,05,07,08,13.40
2018,07,05,07,09,13.40
2018,07,05,07,10,13.40
2018,07,05,07,11,13.40
2018,07,05,07,12,13.40
2018,07,05,07,13,13.40
2018,07,05,07,14,13.40
2018,07,05,07,15,13.40
2018,07,05,07,16,13.40
2018,07,05,07,17,13.40
2018,07,05,07,18,13.40
2018,07,05,07,19,13.40
2018,07,05,07,20,13.40
2018,07,05,07,21,13.40
2018,07,05,07,22,13.40
2018,07,05,07,23,13.40
2018,07,05,07,24,13.40
2018,07,05,07,25,13.40
2018,07,05,07,26,13.50
2018,07,05,07,27,13.50
2018,07,05,07,28,13.50
2018,07,05,07,29,13.50
2018,07,05,07,30,13.60
2018,07,05,07,31,13.60
2018,07,05,07,32,13.60
2018,07,05,07,33,13.60
2018,07,05,07,34,13.60
2018,07,05,07,35,13.60
2018,07,05,07,36,13.50
2018,07,05,07,37,13.50
2018,07,05,07,38,13.50
2018,07,05,07,39,13.50
2018,07,05,07,40,13.50
2018,07,05,07,41,13.50
2018,07,05,07,42,13.50
2018,07,05,07,43,13.50
2018,07,05,07,44,13.40
2018,07,05,07,45,13.40
2018,07,05,07,46,13.40
2018,07,05,07,47,13.40
2018,07,05,07,48,13.40
2018,07,05,07,49,13.40
2018,07,05,07,50,13.40
2018,07,05,07,51,13.30
2018,07,05,07,52,13.30
2018,07,05,07,53,13.40
2018,07,05,07,54,13.40
2018,07,05,07,55,13.40
2018,07,05,07,56,13.40
2018,07,05,07,57,13.40
2018,07,05,07,58,13.40
2018,07,05,07,59,13.40
2018,07,05,08,00,13.40
2018,07,05,08,01,13.40
2018,07,05,08,02,13.40
2018,07,05,08,03,13.40
2018,07,05,08,04,13.40
2018,07,05,08,05,13.40
2018,07,05,08,06,13.50
2018,07,05,08,07,13.50
2018,07,05,08,08,13.50
2018,07,05,08,09,13.50
2018,07,05,08,10,13.60
2018,07,05,08,11,13.60
2018,07,05,08,12,13.60
2018,07,05,08,13,13.60
2018,07,05,08,14,13.70
2018,07,05,08,15,13.70
2018,07,05,08,16,13.70
2018,07,05,08,17,13.70
2018,07,05,08,18,13.70
2018,07,05,08,19,13.70
2018,07,05,08,20,13.80
2018,07,05,08,21,13.80
2018,07,05,08,22,13.80
2018,07,05,08,23,13.80
2018,07,05,08,24,13.80
2018,07,05,08,25,13.90
2018,07,05,08,26,13.90
2018,07,05,08,27,13.90
2018,07,05,08,28,14.00
2018,07,05,08,29,14.00
2018,07,05,08,30,14.10
2018,07,05,08,31,14.10
2018,07,05,08,32,14.10
2018,07,05,08,33,14.10
2018,07,05,08,34,14.20
2018,07,05,08,35,14.20
2018,07,05,08,36,14.20
2018,07,05,08,37,14.30
2018,07,05,08,38,14.20
2018,07,05,08,39,14.30
2018,07,05,08,40,14.30
2018,07,05,08,41,14.40
2018,07,05,08,42,14.50
2018,07,05,08,43,14.60
2018,07,05,08,44,14.60
2018,07,05,08,45,14.70
2018,07,05,08,46,14.70
2018,07,05,08,47,14.80
2018,07,05,08,48,14.90
2018,07,05,08,49,14.90
2018,07,05,08,50,14.90
2018,07,05,08,51,15.00
2018,07,05,08,52,15.10
2018,07,05,08,53,15.10
2018,07,05,08,54,15.20
2018,07,05,08,55,15.20
2018,07,05,08,56,15.30
2018,07,05,08,57,15.30
2018,07,05,08,58,15.40
2018,07,05,08,59,15.50
2018,07,05,09,00,15.60
2018,07,05,09,01,15.60
2018,07,05,09,02,15.70
2018,07,05,09,03,15.70
2018,07,05,09,04,15.70
2018,07,05,09,05,15.70
2018,07,05,09,06,15.70
2018,07,05,09,07,15.70
2018,07,05,09,08,15.70
2018,07,05,09,09,15.70
2018,07,05,09,10,15.60
2018,07,05,09,11,15.50
2018,07,05,09,12,15.50
2018,07,05,09,13,15.40
2018,07,05,09,14,15.30
2018,07,05,09,15,15.30
2018,07,05,09,16,15.20
2018,07,05,09,17,15.00
2018,07,05,09,18,14.90
2018,07,05,09,19,14.90
2018,07,05,09,20,14.80
2018,07,05,09,21,14.70
2018,07,05,09,22,14.70
2018,07,05,09,23,14.60
2018,07,05,09,24,14.60
2018,07,05,09,25,14.70
2018,07,05,09,26,14.70
2018,07,05,09,27,14.70
2018,07,05,09,28,14.80
2018,07,05,09,29,14.80
2018,07,05,09,30,14.90
2018,07,05,09,31,15.00
2018,07,05,09,32,15.00
2018,07,05,09,33,15.10
2018,07,05,09,34,15.20
2018,07,05,09,35,15.30
2018,07,05,09,36,15.30
2018,07,05,09,37,15.40
2018,07,05,09,38,15.50
2018,07,05,09,39,15.60
2018,07,05,09,40,15.70
2018,07,05,09,41,15.80
2018,07,05,09,42,15.90
2018,07,05,09,43,16.00
2018,07,05,09,44,16.20
2018,07,05,09,45,16.40
2018,07,05,09,46,16.60
2018,07,05,09,47,16.80
2018,07,05,09,48,17.00
2018,07,05,09,49,17.10
2018,07,05,09,50,17.10
2018,07,05,09,51,17.20
2018,07,05,09,52,17.30
2018,07,05,09,53,17.40
2018,07,05,09,54,17.50
2018,07,05,09,55,17.60
2018,07,05,09,56,17.70
2018,07,05,09,57,17.70
2018,07,05,09,58,17.70
2018,07,05,09,59,17.80
2018,07,05,10,00,17.80
2018,07,05,10,01,17.80
2018,07,05,10,02,17.70
2018,07,05,10,03,17.70
2018,07,05,10,04,17.60
2018,07,05,10,05,17.60
2018,07,05,10,06,17.50
2018,07,05,10,07,17.40
2018,07,05,10,08,17.20
2018,07,05,10,09,17.20
2018,07,05,10,10,17.10
2018,07,05,10,11,17.00
2018,07,05,10,12,16.90
2018,07,05,10,13,16.90
2018,07,05,10,14,16.90
2018,07,05,10,15,16.90
2018,07,05,10,16,16.90
2018,07,05,10,17,16.90
2018,07,05,10,18,17.00
2018,07,05,10,19,17.10
2018,07,05,10,20,17.20
2018,07,05,10,21,17.30
2018,07,05,10,22,17.50
2018,07,05,10,23,17.70
2018,07,05,10,24,17.80
2018,07,05,10,25,17.90
2018,07,05,10,26,17.80
2018,07,05,10,27,17.80
2018,07,05,10,28,17.70
2018,07,05,10,29,17.70
2018,07,05,10,30,17.50
2018,07,05,10,31,17.50
2018,07,05,10,32,17.60
2018,07,05,10,33,17.70
2018,07,05,10,34,17.70
2018,07,05,10,35,17.80
2018,07,05,10,36,17.90
2018,07,05,10,37,18.00
2018,07,05,10,38,18.10
2018,07,05,10,39,18.10
2018,07,05,10,40,18.10
2018,07,05,10,41,18.10
2018,07,05,10,42,18.10
2018,07,05,10,43,18.10
2018,07,05,10,44,18.10
2018,07,05,10,45,18.10
2018,07,05,10,46,18.10
2018,07,05,10,47,18.10
2018,07,05,10,48,18.10
2018,07,05,10,49,18.20
2018,07,05,10,50,18.20
2018,07,05,10,51,18.10
2018,07,05,10,52,18.00
2018,07,05,10,53,17.90
2018,07,05,10,54,17.80
2018,07,05,10,55,17.80
2018,07,05,10,56,17.80
2018,07,05,10,57,17.80
2018,07,05,10,58,17.90
2018,07,05,10,59,18.00
2018,07,05,11,00,18.10
2018,07,05,11,01,18.10
2018,07,05,11,02,18.10
2018,07,05,11,03,18.00
2018,07,05,11,04,18.00
2018,07,05,11,05,18.00
2018,07,05,11,06,17.90
2018,07,05,11,07,17.90
2018,07,05,11,08,17.80
2018,07,05,11,09,17.70
2018,07,05,11,10,17.60
2018,07,05,11,11,17.60
2018,07,05,11,12,17.60
2018,07,05,11,13,17.70
2018,07,05,11,14,17.80
2018,07,05,11,15,18.00
2018,07,05,11,16,18.10
2018,07,05,11,17,18.30
2018,07,05,11,18,18.40
2018,07,05,11,19,18.50
2018,07,05,11,20,18.60
2018,07,05,11,21,18.70
2018,07,05,11,22,18.70
2018,07,05,11,23,18.70
2018,07,05,11,24,18.80
2018,07,05,11,25,18.80
2018,07,05,11,26,18.80
2018,07,05,11,27,18.70
2018,07,05,11,28,18.70
2018,07,05,11,29,18.70
2018,07,05,11,30,18.70
2018,07,05,11,31,18.80
2018,07,05,11,32,18.80
2018,07,05,11,33,18.90
2018,07,05,11,34,18.90
2018,07,05,11,35,18.90
2018,07,05,11,36,19.10
2018,07,05,11,37,19.20
2018,07,05,11,38,19.30
2018,07,05,11,39,19.40
2018,07,05,11,40,19.40
2018,07,05,11,41,19.30
2018,07,05,11,42,19.10
2018,07,05,11,43,19.00
2018,07,05,11,44,18.80
2018,07,05,11,45,18.70
2018,07,05,11,46,18.70
2018,07,05,11,47,18.70
2018,07,05,11,48,18.60
2018,07,05,11,49,18.50
2018,07,05,11,50,18.40
2018,07,05,11,51,18.40
2018,07,05,11,52,18.50
2018,07,05,11,53,18.60
2018,07,05,11,54,18.60
2018,07,05,11,55,18.70
2018,07,05,11,56,18.80
2018,07,05,11,57,18.90
2018,07,05,11,58,19.10
2018,07,05,11,59,19.20
2018,07,05,12,00,19.40
2018,07,05,12,01,19.40
2018,07,05,12,02,19.40
2018,07,05,12,03,19.40
2018,07,05,12,04,19.30
2018,07,05,12,05,19.20
2018,07,05,12,06,19.20
2018,07,05,12,07,19.20
2018,07,05,12,08,19.10
2018,07,05,12,09,18.90
2018,07,05,12,10,18.80
2018,07,05,12,11,18.80
2018,07,05,12,12,18.80
2018,07,05,12,13,18.70
2018,07,05,12,14,18.50
2018,07,05,12,15,18.40
2018,07,05,12,16,18.30
2018,07,05,12,17,18.20
2018,07,05,12,18,18.20
2018,07,05,12,19,18.10
2018,07,05,12,20,18.10
2018,07,05,12,21,18.10
2018,07,05,12,22,18.10
2018,07,05,12,23,18.10
2018,07,05,12,24,18.20
2018,07,05,12,25,18.20
2018,07,05,12,26,18.20
2018,07,05,12,27,18.20
2018,07,05,12,28,18.20
2018,07,05,12,29,18.30
2018,07,05,12,30,18.40
2018,07,05,12,31,18.50
2018,07,05,12,32,18.60
2018,07,05,12,33,18.70
2018,07,05,12,34,18.80
2018,07,05,12,35,19.00
2018,07,05,12,36,19.10
2018,07,05,12,37,19.30
2018,07,05,12,38,19.40
2018,07,05,12,39,19.50
2018,07,05,12,40,19.50
2018,07,05,12,41,19.70
2018,07,05,12,42,19.80
2018,07,05,12,43,19.90
2018,07,05,12,44,20.00
2018,07,05,12,45,20.10
2018,07,05,12,46,20.30
2018,07,05,12,47,20.40
2018,07,05,12,48,20.50
2018,07,05,12,49,20.60
2018,07,05,12,50,20.60
2018,07,05,12,51,20.60
2018,07,05,12,52,20.70
2018,07,05,12,53,20.70
2018,07,05,12,54,20.70
2018,07,05,12,55,20.80
2018,07,05,12,56,21.00
2018,07,05,12,57,21.10
2018,07,05,12,58,21.30
2018,07,05,12,59,21.30
2018,07,05,13,00,21.40
2018,07,05,13,01,21.40
2018,07,05,13,02,21.40
2018,07,05,13,03,21.30
2018,07,05,13,04,21.30
2018,07,05,13,05,21.30
2018,07,05,13,06,21.30
2018,07,05,13,07,21.30
2018,07,05,13,08,21.20
2018,07,05,13,09,21.10
2018,07,05,13,10,21.10
2018,07,05,13,11,21.10
2018,07,05,13,12,21.10
2018,07,05,13,13,21.10
2018,07,05,13,14,21.20
2018,07,05,13,15,21.20
2018,07,05,13,16,21.20
2018,07,05,13,17,21.20
2018,07,05,13,18,21.20
2018,07,05,13,19,21.20
2018,07,05,13,20,21.30
2018,07,05,13,21,21.30
2018,07,05,13,22,21.40
2018,07,05,13,23,21.40
2018,07,05,13,24,21.50
2018,07,05,13,25,21.60
2018,07,05,13,26,21.70
2018,07,05,13,27,21.70
2018,07,05,13,28,21.70
2018,07,05,13,29,21.60
2018,07,05,13,30,21.60
2018,07,05,13,31,21.60
2018,07,05,13,32,21.50
2018,07,05,13,33,21.50
2018,07,05,13,34,21.40
2018,07,05,13,35,21.30
2018,07,05,13,36,21.20
2018,07,05,13,37,21.00
2018,07,05,13,38,20.90
2018,07,05,13,39,20.90
2018,07,05,13,40,20.90
2018,07,05,13,41,21.10
2018,07,05,13,42,21.20
2018,07,05,13,43,21.40
2018,07,05,13,44,21.50
2018,07,05,13,45,21.60
2018,07,05,13,46,21.60
2018,07,05,13,47,21.50
2018,07,05,13,48,21.40
2018,07,05,13,49,21.40
2018,07,05,13,50,21.40
2018,07,05,13,51,21.50
2018,07,05,13,52,21.50
2018,07,05,13,53,21.60
2018,07,05,13,54,21.70
2018,07,05,13,55,21.80
2018,07,05,13,56,22.00
2018,07,05,13,57,22.20
2018,07,05,13,58,22.30
2018,07,05,13,59,22.50
2018,07,05,14,00,22.70
2018,07,05,14,01,22.90
2018,07,05,14,02,23.10
2018,07,05,14,03,23.20
2018,07,05,14,04,23.30
2018,07,05,14,05,23.40
2018,07,05,14,06,23.60
2018,07,05,14,07,23.70
2018,07,05,14,08,23.80
2018,07,05,14,09,23.90
2018,07,05,14,10,24.00
2018,07,05,14,11,24.10
2018,07,05,14,12,24.10
2018,07,05,14,13,24.20
2018,07,05,14,14,24.30
2018,07,05,14,15,24.30
2018,07,05,14,16,24.20
2018,07,05,14,17,24.20
2018,07,05,14,18,24.00
2018,07,05,14,19,23.80
2018,07,05,14,20,23.70
2018,07,05,14,21,23.70
2018,07,05,14,22,23.70
2018,07,05,14,23,23.70
2018,07,05,14,24,23.70
2018,07,05,14,25,23.80
2018,07,05,14,26,23.80
2018,07,05,14,27,24.00
2018,07,05,14,28,24.10
2018,07,05,14,29,24.20
2018,07,05,14,30,24.30
2018,07,05,14,31,24.40
2018,07,05,14,32,24.30
2018,07,05,14,33,24.30
2018,07,05,14,34,24.40
2018,07,05,14,35,24.40
2018,07,05,14,36,24.30
2018,07,05,14,37,24.30
2018,07,05,14,38,24.30
2018,07,05,14,39,24.40
2018,07,05,14,40,24.50
2018,07,05,14,41,24.60
2018,07,05,14,42,24.60
2018,07,05,14,43,24.70
2018,07,05,14,44,24.80
2018,07,05,14,45,24.90
2018,07,05,14,46,24.90
2018,07,05,14,47,24.90
2018,07,05,14,48,24.80
2018,07,05,14,49,24.80
2018,07,05,14,50,24.80
2018,07,05,14,51,24.80
2018,07,05,14,52,24.90
2018,07,05,14,53,25.00
2018,07,05,14,54,25.10
2018,07,05,14,55,25.10
2018,07,05,14,56,25.00
2018,07,05,14,57,25.00
2018,07,05,14,58,25.10
2018,07,05,14,59,25.20
2018,07,05,15,00,25.20
2018,07,05,15,01,25.00
2018,07,05,15,02,24.80
2018,07,05,15,03,24.70
2018,07,05,15,04,24.60
2018,07,05,15,05,24.50
2018,07,05,15,06,24.50
2018,07,05,15,07,24.40
2018,07,05,15,08,24.30
2018,07,05,15,09,24.20
2018,07,05,15,10,24.20
2018,07,05,15,11,24.20
2018,07,05,15,12,24.30
2018,07,05,15,13,24.30
2018,07,05,15,14,24.10
2018,07,05,15,15,24.00
2018,07,05,15,16,23.90
2018,07,05,15,17,23.80
2018,07,05,15,18,23.80
2018,07,05,15,19,23.80
2018,07,05,15,20,23.80
2018,07,05,15,21,23.90
2018,07,05,15,22,24.10
2018,07,05,15,23,24.20
2018,07,05,15,24,24.30
2018,07,05,15,25,24.50
2018,07,05,15,26,24.50
2018,07,05,15,27,24.30
2018,07,05,15,28,24.20
2018,07,05,15,29,24.20
2018,07,05,15,30,24.20
2018,07,05,15,31,24.20
2018,07,05,15,32,24.20
2018,07,05,15,33,24.20
2018,07,05,15,34,24.30
2018,07,05,15,35,24.40
2018,07,05,15,36,24.40
2018,07,05,15,37,24.30
2018,07,05,15,38,24.20
2018,07,05,15,39,24.10
2018,07,05,15,40,23.90
2018,07,05,15,41,23.90
2018,07,05,15,42,23.80
2018,07,05,15,43,23.80
2018,07,05,15,44,23.70
2018,07,05,15,45,23.70
2018,07,05,15,46,23.70
2018,07,05,15,47,23.60
2018,07,05,15,48,23.60
2018,07,05,15,49,23.60
2018,07,05,15,50,23.60
2018,07,05,15,51,23.60
2018,07,05,15,52,23.60
2018,07,05,15,53,23.70
2018,07,05,15,54,23.80
2018,07,05,15,55,23.80
2018,07,05,15,56,23.80
2018,07,05,15,57,23.80
2018,07,05,15,58,23.80
2018,07,05,15,59,23.70
2018,07,05,16,00,23.60
2018,07,05,16,01,23.40
2018,07,05,16,02,23.30
2018,07,05,16,03,23.20
2018,07,05,16,04,23.20
2018,07,05,16,05,23.20
2018,07,05,16,06,23.20
2018,07,05,16,07,23.10
2018,07,05,16,08,23.00
2018,07,05,16,09,22.90
2018,07,05,16,10,22.80
2018,07,05,16,11,22.70
2018,07,05,16,12,22.70
2018,07,05,16,13,22.60
2018,07,05,16,14,22.50
2018,07,05,16,15,22.50
2018,07,05,16,16,22.40
2018,07,05,16,17,22.40
2018,07,05,16,18,22.40
2018,07,05,16,19,22.40
2018,07,05,16,20,22.50
2018,07,05,16,21,22.60
2018,07,05,16,22,22.60
2018,07,05,16,23,22.60
2018,07,05,16,24,22.60
2018,07,05,16,25,22.50
2018,07,05,16,26,22.60
2018,07,05,16,27,22.70
2018,07,05,16,28,22.70
2018,07,05,16,29,22.80
2018,07,05,16,30,22.80
2018,07,05,16,31,22.90
2018,07,05,16,32,22.90
2018,07,05,16,33,22.80
2018,07,05,16,34,22.70
2018,07,05,16,35,22.70
2018,07,05,16,36,22.80
2018,07,05,16,37,22.80
2018,07,05,16,38,22.70
2018,07,05,16,39,22.60
2018,07,05,16,40,22.60
2018,07,05,16,41,22.60
2018,07,05,16,42,22.70
2018,07,05,16,43,22.80
2018,07,05,16,44,22.80
2018,07,05,16,45,22.90
2018,07,05,16,46,22.90
2018,07,05,16,47,22.90
2018,07,05,16,48,23.00
2018,07,05,16,49,23.20
2018,07,05,16,50,23.40
2018,07,05,16,51,23.50
2018,07,05,16,52,23.50
2018,07,05,16,53,23.50
2018,07,05,16,54,23.60
2018,07,05,16,55,23.50
2018,07,05,16,56,23.50
2018,07,05,16,57,23.40
2018,07,05,16,58,23.30
2018,07,05,16,59,23.10
2018,07,05,17,00,23.00
2018,07,05,17,01,22.80
2018,07,05,17,02,22.60
2018,07,05,17,03,22.50
2018,07,05,17,04,22.40
2018,07,05,17,05,22.40
2018,07,05,17,06,22.40
2018,07,05,17,07,22.30
2018,07,05,17,08,22.20
2018,07,05,17,09,22.10
2018,07,05,17,10,22.10
2018,07,05,17,11,22.10
2018,07,05,17,12,22.00
2018,07,05,17,13,22.10
2018,07,05,17,14,22.00
2018,07,05,17,15,22.00
2018,07,05,17,16,21.90
2018,07,05,17,17,21.90
2018,07,05,17,18,21.90
2018,07,05,17,19,21.90